"2010-01-28 00:00:00",1630359,8.34,157.3,4.046,0.413,4.076,99.55827,-1.826,-0.341,66.47,0,109.5,13.6,-1.08,119.3
"2010-01-28 00:00:30",1630360,8.31,157.3,2.454,0.648,3.927,99.54581,-1.857,-0.382,66.6,0,109.5,13.6,-1.11,119.3
"2010-01-28 00:01:00",1630361,8.3,156.2,3.635,0.646,3.983,99.53194,-1.893,-0.398,66.75,0,109.5,13.61,-1.15,118.2
"2010-01-28 00:01:30",1630362,8.31,156.4,3.851,0.54,3.787,99.52457,-1.911,-0.43,66.85,0,109.5,13.61,-1.17,118.4
"2010-01-28 00:02:00",1630363,8.36,156.7,2.931,0.615,4.061,99.52401,-1.913,-0.466,66.97,0,109.5,13.61,-1.17,118.7
"2010-01-28 00:02:30",1630364,8.57,155.2,3.721,0.483,3.825,99.51579,-1.934,-0.485,67.06,0,109.5,13.61,-1.19,117.2
"2010-01-28 00:03:00",1630365,8.74,151.7,3.319,0.635,3.704,99.49315,-1.991,-0.477,67.08,0,109.5,13.61,-1.25,113.7
"2010-01-28 00:03:30",1630366,9.02,149.2,3.191,0.627,3.754,99.49032,-1.999,-0.526,67.02,0,109.5,13.61,-1.25,111.2
"2010-01-28 00:04:00",1630367,9.08,149,3.074,0.64,4.174,99.48663,-2.008,-0.545,66.99,0,109.5,13.61,-1.26,111.0
"2010-01-28 00:04:30",1630368,8.9,151.6,2.579,0.629,4.269,99.46143,-2.072,-0.581,67.06,0,109.4,13.61,-1.33,113.6
"2010-01-28 00:05:00",1630369,8.76,152.3,3.285,0.651,4.452,99.45633,-2.085,-0.6,67.17,0,109.5,13.61,-1.34,114.3
"2010-01-28 00:05:30",1630370,8.93,150.9,3.564,0.649,4.387,99.44444,-2.116,-0.627,67.32,0,109.5,13.61,-1.37,112.9
"2010-01-28 00:06:00",1630371,9.04,150.4,3.598,0.541,4.469,99.42236,-2.172,-0.646,67.42,0,109.5,13.62,-1.43,112.4
"2010-01-28 00:06:30",1630372,9.08,150.8,3.683,0.379,4.584,99.42207,-2.173,-0.68,67.49,0,109.5,13.62,-1.43,112.8
"2010-01-28 00:07:00",1630373,8.76,151.3,3.229,0.667,4.599,99.40027,-2.228,-0.694,67.64,0,109.5,13.62,-1.48,113.3
"2010-01-28 00:07:30",1630374,8.77,150.5,3.749,0.637,4.59,99.38838,-2.258,-0.744,67.77,0,109.5,13.62,-1.51,112.5
"2010-01-28 00:08:00",1630375,8.86,150.8,2.882,0.624,4.448,99.38838,-2.258,-0.788,67.91,0,109.5,13.62,-1.51,112.8
"2010-01-28 00:08:30",1630376,8.97,150.4,3.037,0.474,4.415,99.37053,-2.304,-0.824,68.04,0,109.5,13.62,-1.56,112.4
"2010-01-28 00:09:00",1630377,9.04,149.2,3.757,0.537,4.57,99.35439,-2.345,-0.806,68.13,0,109.5,13.62,-1.60,111.2
"2010-01-28 00:09:30",1630378,9.17,149.2,3.629,0.548,4.497,99.35468,-2.344,-0.838,68.2,0,109.5,13.62,-1.60,111.2
"2010-01-28 00:10:00",1630379,9.12,149.5,3.845,0.553,4.691,99.35242,-2.35,-0.899,68.25,0,109.5,13.62,-1.61,111.5
"2010-01-28 00:10:30",1630380,9.19,149.7,3.243,0.602,4.553,99.33543,-2.393,-0.886,68.32,0,109.4,13.62,-1.65,111.7
"2010-01-28 00:11:00",1630381,9.19,148.8,3.742,0.546,4.605,99.32127,-2.429,-0.905,68.44,0,109.5,13.62,-1.69,110.8
"2010-01-28 00:11:30",1630382,9.23,148.2,3.854,0.502,4.69,99.32182,-2.428,-0.955,68.5,0,109.5,13.62,-1.68,110.2
"2010-01-28 00:12:00",1630383,9.14,148.1,4.456,0.55,4.684,99.31786,-2.438,-0.972,68.58,0,109.5,13.62,-1.69,110.1
"2010-01-28 00:12:30",1630384,8.91,146.5,2.519,0.651,4.388,99.30003,-2.484,-0.998,68.63,0,109.5,13.61,-1.74,108.5
"2010-01-28 00:13:00",1630385,9.13,148,3.68,0.663,4.591,99.28757,-2.515,-1.005,68.71,0,109.5,13.61,-1.77,110.0
"2010-01-28 00:13:30",1630386,9.48,147.8,4.158,0.419,4.428,99.28785,-2.515,-1.041,68.77,0,109.5,13.61,-1.77,109.8
"2010-01-28 00:14:00",1630387,9.43,147.3,3.836,0.499,4.854,99.28614,-2.519,-1.06,68.81,0,109.5,13.61,-1.78,109.3
"2010-01-28 00:14:30",1630388,9.21,146.6,3.008,0.619,4.699,99.26575,-2.571,-1.077,68.85,0,109.5,13.61,-1.83,108.6
"2010-01-28 00:15:00",1630389,9.17,146.4,3.304,0.643,4.581,99.25499,-2.598,-1.114,68.93,0,109.5,13.62,-1.86,108.4
"2010-01-28 00:15:30",1630390,8.98,147.2,3.239,0.668,4.648,99.26201,-2.58,-1.141,68.95,0,109.5,13.61,-1.84,109.2
"2010-01-28 00:16:00",1630391,8.93,146.4,3.292,0.575,4.584,99.26173,-2.581,-1.164,69,0,109.5,13.62,-1.84,108.4
"2010-01-28 00:16:30",1630392,8.94,144.1,3.747,0.504,4.507,99.24925,-2.613,-1.177,69.04,0,109.4,13.62,-1.87,106.1
"2010-01-28 00:17:00",1630393,8.86,142.5,3.734,0.535,4.482,99.23648,-2.645,-1.202,69.12,0,109.5,13.62,-1.90,104.5
"2010-01-28 00:17:30",1630394,8.88,142.4,3.83,0.616,4.54,99.23562,-2.648,-1.22,69.17,0,109.5,13.62,-1.90,104.4
"2010-01-28 00:18:00",1630395,8.92,144.1,3.812,0.499,4.593,99.23703,-2.644,-1.246,69.26,0,109.5,13.62,-1.90,106.1
"2010-01-28 00:18:30",1630396,8.98,145.4,3.072,0.474,4.399,99.24068,-2.635,-1.259,69.31,0,109.4,13.62,-1.89,107.4
"2010-01-28 00:19:00",1630397,8.94,144.2,3.39,0.65,4.4,99.2333,-2.654,-1.265,69.4,0,109.5,13.62,-1.91,106.2
"2010-01-28 00:19:30",1630398,8.86,143.6,3.285,0.628,4.356,99.22254,-2.681,-1.299,69.44,0,109.4,13.63,-1.94,105.6
"2010-01-28 00:20:00",1630399,9.05,143.3,4.031,0.535,4.582,99.21148,-2.709,-1.312,69.55,0,109.5,13.63,-1.97,105.3
"2010-01-28 00:20:30",1630400,9.08,144.8,3.648,0.509,4.629,99.21119,-2.71,-1.328,69.58,0,109.4,13.63,-1.97,106.8
"2010-01-28 00:21:00",1630401,9.14,145.7,4.287,0.553,4.689,99.21062,-2.711,-1.313,69.68,0,109.5,13.63,-1.97,107.7
"2010-01-28 00:21:30",1630402,9.15,146.9,4.398,0.54,4.748,99.21034,-2.712,-1.35,69.76,0,109.5,13.63,-1.97,108.9
"2010-01-28 00:22:00",1630403,9.3,147.9,4.189,0.56,4.799,99.21062,-2.711,-1.352,69.84,0,109.4,13.63,-1.97,109.9
"2010-01-28 00:22:30",1630404,9.36,149.1,3.698,0.394,4.996,99.21006,-2.713,-1.38,69.99,0,109.4,13.63,-1.97,111.1
"2010-01-28 00:23:00",1630405,9.18,149.4,4.171,0.642,4.909,99.20949,-2.714,-1.373,70.21,0,109.4,13.63,-1.97,111.4
"2010-01-28 00:23:30",1630406,9.29,150.1,3.568,0.502,4.991,99.20949,-2.714,-1.378,70.39,0,109.4,13.63,-1.97,112.1
"2010-01-28 00:24:00",1630407,9.16,150.2,3.717,0.648,5.082,99.21259,-2.706,-1.389,70.53,0,109.4,13.63,-1.96,112.2
"2010-01-28 00:24:30",1630408,9.28,150.7,3.193,0.471,4.859,99.21259,-2.706,-1.398,70.63,0,109.4,13.63,-1.96,112.7
"2010-01-28 00:25:00",1630409,9.13,151,3.426,0.632,4.901,99.214,-2.703,-1.39,70.74,0,109.4,13.63,-1.96,113.0
"2010-01-28 00:25:30",1630410,9.22,150.9,3.446,0.542,4.86,99.21568,-2.698,-1.414,70.78,0,109.4,13.63,-1.96,112.9
"2010-01-28 00:26:00",1630411,9.23,151.1,3.705,0.563,4.967,99.214,-2.703,-1.396,70.83,0,109.4,13.63,-1.96,113.1
"2010-01-28 00:26:30",1630412,9.28,151.7,3.193,0.513,4.883,99.21737,-2.694,-1.4,70.83,0,109.4,13.63,-1.95,113.7
"2010-01-28 00:27:00",1630413,9.25,150.7,4.169,0.522,4.86,99.21624,-2.697,-1.39,70.87,0,109.4,13.63,-1.95,112.7
"2010-01-28 00:27:30",1630414,9.17,149.7,4.245,0.542,4.9,99.21793,-2.693,-1.387,70.87,0,109.4,13.63,-1.95,111.7
"2010-01-28 00:28:00",1630415,9.28,150.2,3.74,0.542,4.862,99.22047,-2.686,-1.39,70.87,0,109.4,13.62,-1.94,112.2
"2010-01-28 00:28:30",1630416,9.42,150.6,3.678,0.307,4.961,99.22756,-2.668,-1.382,70.88,0,109.4,13.63,-1.93,112.6
"2010-01-28 00:29:00",1630417,8.97,151.3,3.758,0.622,5.091,99.23436,-2.651,-1.367,70.87,0,109.4,13.62,-1.91,113.3
"2010-01-28 00:29:30",1630418,8.9,152.3,3.092,0.65,4.856,99.24031,-2.636,-1.373,70.92,0,109.4,13.62,-1.89,114.3
"2010-01-28 00:30:00",1630419,8.95,152.4,3.321,0.626,4.762,99.25023,-2.61,-1.355,70.95,0,109.4,13.63,-1.87,114.4
"2010-01-28 00:30:30",1630420,9.1,152.8,3.199,0.516,4.865,99.2522,-2.605,-1.345,70.97,0,109.4,13.62,-1.86,114.8
"2010-01-28 00:31:00",1630421,9.17,151.4,4.145,0.408,4.874,99.2522,-2.605,-1.353,70.99,0,109.4,13.63,-1.86,113.4
"2010-01-28 00:31:30",1630422,9.08,150.4,4.153,0.721,4.782,99.2522,-2.605,-1.331,70.94,0,109.4,13.62,-1.86,112.4
"2010-01-28 00:32:00",1630423,9.17,150,3.158,0.612,4.61,99.2522,-2.605,-1.313,70.84,0,109.4,13.63,-1.86,112.0
"2010-01-28 00:32:30",1630424,9.1,148.7,3.59,0.515,4.696,99.2522,-2.605,-1.328,70.65,0,109.4,13.63,-1.86,110.7
"2010-01-28 00:33:00",1630425,8.96,148.8,3.745,0.537,4.853,99.2522,-2.605,-1.312,70.41,0,109.4,13.63,-1.86,110.8
"2010-01-28 00:33:30",1630426,8.92,149.4,3.656,0.625,4.846,99.2522,-2.605,-1.31,70.3,0,109.4,13.63,-1.86,111.4
"2010-01-28 00:34:00",1630427,8.89,150.3,3.716,0.509,4.892,99.2522,-2.605,-1.314,70.34,0,109.4,13.63,-1.86,112.3
"2010-01-28 00:34:30",1630428,8.87,151.6,3.244,0.498,4.66,99.2522,-2.605,-1.319,70.43,0,109.4,13.63,-1.86,113.6
"2010-01-28 00:35:00",1630429,8.88,151.5,3.263,0.642,4.66,99.2522,-2.605,-1.291,70.5,0,109.4,13.63,-1.86,113.5
"2010-01-28 00:35:30",1630430,8.84,151.5,3.286,0.635,4.573,99.2522,-2.605,-1.293,70.47,0,109.4,13.63,-1.86,113.5
"2010-01-28 00:36:00",1630431,8.67,151.2,3.34,0.655,4.677,99.2522,-2.605,-1.319,70.42,0,109.4,13.63,-1.86,113.2
"2010-01-28 00:36:30",1630432,8.6,151.1,2.627,0.632,4.533,99.25362,-2.602,-1.298,70.39,0,109.4,13.63,-1.86,113.1
"2010-01-28 00:37:00",1630433,8.69,150.2,3.722,0.615,4.44,99.25362,-2.602,-1.268,70.44,0,109.4,13.63,-1.86,112.2
"2010-01-28 00:37:30",1630434,8.67,150.8,3.387,0.526,4.471,99.25475,-2.599,-1.27,70.33,0,109.4,13.63,-1.86,112.8
"2010-01-28 00:38:00",1630435,8.66,150.3,3.779,0.635,4.475,99.25362,-2.602,-1.268,70.19,0,109.4,13.63,-1.86,112.3
"2010-01-28 00:38:30",1630436,8.73,150.8,3.806,0.462,4.564,99.25561,-2.597,-1.273,70.01,0,109.4,13.64,-1.85,112.8
"2010-01-28 00:39:00",1630437,8.55,150,3.671,0.641,4.464,99.25533,-2.597,-1.266,69.9,0,109.4,13.63,-1.85,112.0
"2010-01-28 00:39:30",1630438,8.48,150.5,3.29,0.613,4.374,99.25306,-2.603,-1.294,69.79,0,109.4,13.64,-1.86,112.5
"2010-01-28 00:40:00",1630439,8.48,150.9,3.178,0.622,4.389,99.25362,-2.602,-1.28,69.71,0,109.4,13.64,-1.86,112.9
"2010-01-28 00:40:30",1630440,8.45,150.4,3.115,0.509,4.339,99.25419,-2.6,-1.281,69.71,0,109.4,13.64,-1.86,112.4
"2010-01-28 00:41:00",1630441,8.38,150.2,3.151,0.645,4.273,99.25334,-2.603,-1.26,69.71,0,109.4,13.64,-1.86,112.2
"2010-01-28 00:41:30",1630442,8.36,148.9,4.141,0.535,4.354,99.2522,-2.605,-1.267,69.71,0,109.4,13.64,-1.86,110.9
"2010-01-28 00:42:00",1630443,8.15,147.5,3.765,0.559,4.309,99.25249,-2.605,-1.264,69.64,0,109.4,13.64,-1.86,109.5
"2010-01-28 00:42:30",1630444,8.11,146.3,3.185,0.538,4.202,99.2522,-2.605,-1.245,69.53,0,109.4,13.64,-1.86,108.3
"2010-01-28 00:43:00",1630445,7.946,145.8,4.288,0.532,4.147,99.2522,-2.605,-1.251,69.48,0,109.4,13.64,-1.86,107.8
"2010-01-28 00:43:30",1630446,7.945,144.3,3.709,0.539,4.016,99.2522,-2.605,-1.247,69.43,0,109.4,13.64,-1.86,106.3
"2010-01-28 00:44:00",1630447,8.25,143.8,4.123,0.53,3.826,99.2522,-2.605,-1.263,69.41,0,109.4,13.63,-1.86,105.8
"2010-01-28 00:44:30",1630448,8.47,145.5,3.776,0.393,3.687,99.2522,-2.605,-1.276,69.42,0,109.4,13.63,-1.86,107.5
"2010-01-28 00:45:00",1630449,8.38,146.4,3.747,0.641,3.96,99.2522,-2.605,-1.249,69.44,0,109.4,13.63,-1.86,108.4
"2010-01-28 00:45:30",1630450,8.3,146.7,3.311,0.639,3.832,99.2522,-2.605,-1.268,69.45,0,109.4,13.63,-1.86,108.7
"2010-01-28 00:46:00",1630451,8.16,146.4,3.243,0.656,4.051,99.25079,-2.609,-1.298,69.45,0,109.4,13.63,-1.87,108.4
"2010-01-28 00:46:30",1630452,8.1,145.2,3.126,0.487,4.056,99.23833,-2.641,-1.299,69.47,0,109.4,13.63,-1.90,107.2
"2010-01-28 00:47:00",1630453,7.942,144.1,3.692,0.55,3.936,99.22218,-2.682,-1.292,69.49,0,109.4,13.63,-1.94,106.1
"2010-01-28 00:47:30",1630454,8.02,144.2,4.236,0.508,3.959,99.21822,-2.692,-1.289,69.48,0,109.4,13.63,-1.95,106.2
"2010-01-28 00:48:00",1630455,7.988,143.5,3.729,0.638,3.762,99.21822,-2.692,-1.304,69.52,0,109.4,13.63,-1.95,105.5
"2010-01-28 00:48:30",1630456,8.13,144.1,3.306,0.509,3.597,99.21822,-2.692,-1.344,69.6,0,109.4,13.63,-1.95,106.1
"2010-01-28 00:49:00",1630457,8.02,143.7,3.7,0.538,3.719,99.21793,-2.693,-1.321,69.73,0,109.4,13.64,-1.95,105.7
"2010-01-28 00:49:30",1630458,8.07,143,3.773,0.575,3.759,99.2083,-2.717,-1.345,69.82,0,109.4,13.64,-1.97,105.0
"2010-01-28 00:50:00",1630459,8.08,140.8,4.13,0.563,3.746,99.18762,-2.77,-1.342,70,0,109.4,13.64,-2.03,102.8
"2010-01-28 00:50:30",1630460,8.01,140.8,3.604,0.625,3.67,99.18478,-2.777,-1.363,70.16,0,109.3,13.64,-2.03,102.8
"2010-01-28 00:51:00",1630461,7.896,139.9,3.656,0.649,3.62,99.1845,-2.778,-1.362,70.28,0,109.4,13.64,-2.04,101.9
"2010-01-28 00:51:30",1630462,7.87,140.3,3.737,0.641,3.543,99.17771,-2.795,-1.384,70.39,0,109.4,13.64,-2.05,102.3
"2010-01-28 00:52:00",1630463,7.803,139.7,3.748,0.523,3.602,99.15447,-2.854,-1.416,70.49,0,109.4,13.64,-2.11,101.7
"2010-01-28 00:52:30",1630464,7.837,139.9,3.716,0.481,3.734,99.15108,-2.863,-1.419,70.59,0,109.4,13.64,-2.12,101.9
"2010-01-28 00:53:00",1630465,7.711,137.2,4.071,0.567,3.425,99.15079,-2.864,-1.429,70.68,0,109.4,13.64,-2.12,99.2
"2010-01-28 00:53:30",1630466,7.71,136.3,3.309,0.662,3.259,99.14994,-2.866,-1.464,70.84,0,109.4,13.64,-2.12,98.3
"2010-01-28 00:54:00",1630467,7.621,135.7,3.977,0.58,3.047,99.12528,-2.929,-1.481,71.02,0,109.4,13.64,-2.19,97.7
"2010-01-28 00:54:30",1630468,7.741,135.4,3.328,0.505,3.204,99.11793,-2.948,-1.487,71.19,0,109.4,13.64,-2.21,97.4
"2010-01-28 00:55:00",1630469,7.509,132.3,4.497,0.416,3.186,99.11821,-2.947,-1.518,71.38,0,109.4,13.64,-2.21,94.3
"2010-01-28 00:55:30",1630470,7.26,132,4.217,0.54,3.15,99.11932,-2.944,-1.531,71.56,0,109.4,13.64,-2.20,94.0
"2010-01-28 00:56:00",1630471,7.231,133.1,4.173,0.538,3.183,99.10232,-2.987,-1.537,71.73,0,109.4,13.64,-2.25,95.1
"2010-01-28 00:56:30",1630472,7.293,134.2,3.815,0.509,3.11,99.08646,-3.028,-1.583,71.87,0,109.4,13.64,-2.29,96.2
"2010-01-28 00:57:00",1630473,7.157,134.1,3.623,0.638,2.981,99.08675,-3.027,-1.596,72.03,0,109.4,13.64,-2.29,96.1
"2010-01-28 00:57:30",1630474,7.218,134.1,3.824,0.623,2.912,99.08897,-3.021,-1.61,72.15,0,109.4,13.64,-2.28,96.1
"2010-01-28 00:58:00",1630475,7.31,135.6,4.042,0.484,3.045,99.05869,-3.098,-1.639,72.27,0,109.4,13.64,-2.36,97.6
"2010-01-28 00:58:30",1630476,7.45,137.2,3.796,0.351,2.913,99.05387,-3.111,-1.663,72.38,0,109.4,13.64,-2.37,99.2
"2010-01-28 00:59:00",1630477,7.426,138.7,3.224,0.649,2.914,99.05724,-3.102,-1.68,72.49,0,109.4,13.64,-2.36,100.7
"2010-01-28 00:59:30",1630478,7.474,139.7,3.093,0.66,3.1,99.05383,-3.111,-1.714,72.55,0,109.4,13.64,-2.37,101.7
"2010-01-28 01:00:00",1630479,7.533,140.3,3.339,0.638,3.284,99.02808,-3.176,-1.727,72.59,0,109.4,13.64,-2.44,102.3
"2010-01-28 01:00:30",1630480,7.548,139.8,3.19,0.501,3.438,99.0196,-3.198,-1.75,72.61,0,109.4,13.64,-2.46,101.8
"2010-01-28 01:01:00",1630481,7.493,139.6,4.034,0.51,3.393,99.02213,-3.192,-1.743,72.65,0,109.4,13.64,-2.45,101.6
"2010-01-28 01:01:30",1630482,7.512,140.1,4.179,0.571,3.375,99.02661,-3.18,-1.78,72.69,0,109.4,13.64,-2.44,102.1
"2010-01-28 01:02:00",1630483,7.704,139.5,3.332,0.538,3.304,99.02829,-3.176,-1.801,72.74,0,109.4,13.64,-2.44,101.5
"2010-01-28 01:02:30",1630484,7.805,141,3.68,0.357,3.42,99.01952,-3.198,-1.819,72.78,0,109.4,13.64,-2.46,103.0
"2010-01-28 01:03:00",1630485,7.637,140.1,4.027,0.531,3.464,99.00282,-3.241,-1.835,72.85,0,109.4,13.64,-2.50,102.1
"2010-01-28 01:03:30",1630486,7.416,138.1,4.191,0.534,3.517,98.9977,-3.254,-1.824,72.89,0,109.4,13.64,-2.51,100.1
"2010-01-28 01:04:00",1630487,7.281,136.2,4.169,0.535,3.576,98.99712,-3.255,-1.838,72.87,0,109.4,13.64,-2.51,98.2
"2010-01-28 01:04:30",1630488,7.291,136,3.208,0.611,3.346,99.0019,-3.243,-1.843,72.81,0,109.4,13.64,-2.50,98.0
"2010-01-28 01:05:00",1630489,7.248,135.6,3.658,0.63,3.244,99.00446,-3.237,-1.851,72.75,0,109.4,13.64,-2.50,97.6
"2010-01-28 01:05:30",1630490,7.204,136,3.777,0.627,3.225,99.01238,-3.216,-1.858,72.71,0,109.4,13.64,-2.48,98.0
"2010-01-28 01:06:00",1630491,7.251,137.4,3.918,0.489,3.37,99.02852,-3.175,-1.871,72.73,0,109.4,13.65,-2.43,99.4
"2010-01-28 01:06:30",1630492,7.236,140,3.647,0.501,3.361,99.03362,-3.162,-1.848,72.77,0,109.4,13.65,-2.42,102.0
"2010-01-28 01:07:00",1630493,7.612,140.9,3.819,0.564,3.154,99.03531,-3.158,-1.837,72.83,0,109.4,13.65,-2.42,102.9
"2010-01-28 01:07:30",1630494,7.402,141.3,3.736,0.651,3.166,99.03559,-3.157,-1.86,72.91,0,109.4,13.65,-2.42,103.3
"2010-01-28 01:08:00",1630495,7,138.8,4.492,0.657,3.494,99.03531,-3.158,-1.852,72.95,0,109.4,13.65,-2.42,100.8
"2010-01-28 01:08:30",1630496,6.877,137,3.234,0.502,3.325,99.03699,-3.154,-1.848,72.93,0,109.4,13.65,-2.41,99.0
"2010-01-28 01:09:00",1630497,6.918,133.9,4.138,0.499,3.636,99.03727,-3.153,-1.838,72.9,0,109.4,13.65,-2.41,95.9
"2010-01-28 01:09:30",1630498,6.599,135.1,4.258,0.54,3.224,99.03812,-3.151,-1.825,72.99,0,109.4,13.65,-2.41,97.1
"2010-01-28 01:10:00",1630499,6.7,136.2,3.242,0.66,2.936,99.03981,-3.147,-1.838,73.09,0,109.4,13.65,-2.41,98.2
"2010-01-28 01:10:30",1630500,6.825,136.4,2.566,0.514,2.767,99.04492,-3.134,-1.829,73.16,0,109.4,13.65,-2.39,98.4
"2010-01-28 01:11:00",1630501,6.787,135.3,3.656,0.565,2.789,99.05226,-3.115,-1.817,73.25,0,109.4,13.65,-2.37,97.3
"2010-01-28 01:11:30",1630502,6.878,136.3,4.011,0.557,2.861,99.05735,-3.102,-1.818,73.31,0,109.4,13.65,-2.36,98.3
"2010-01-28 01:12:00",1630503,6.954,138.1,3.806,0.522,2.705,99.06472,-3.083,-1.804,73.3,0,109.4,13.65,-2.34,100.1
"2010-01-28 01:12:30",1630504,7.085,137.8,3.816,0.351,2.7,99.07012,-3.069,-1.811,73.32,0,109.4,13.66,-2.33,99.8
"2010-01-28 01:13:00",1630505,6.979,133,4.126,0.531,2.873,99.07605,-3.054,-1.784,73.43,0,109.4,13.66,-2.31,95.0
"2010-01-28 01:13:30",1630506,7.021,129.9,3.805,0.523,2.772,99.07661,-3.053,-1.788,73.48,0,109.4,13.66,-2.31,91.9
"2010-01-28 01:14:00",1630507,6.936,132.1,4.283,0.648,3.043,99.07745,-3.051,-1.797,73.45,0,109.4,13.66,-2.31,94.1
"2010-01-28 01:14:30",1630508,7.021,133.2,3.269,0.603,2.92,99.07774,-3.05,-1.786,73.36,0,109.4,13.66,-2.31,95.2
"2010-01-28 01:15:00",1630509,7.207,131.5,4.145,0.34,2.894,99.07632,-3.054,-1.782,73.24,0,109.4,13.66,-2.31,93.5
"2010-01-28 01:15:30",1630510,6.972,131.7,4.069,0.521,2.91,99.07605,-3.054,-1.774,73.15,0,109.4,13.65,-2.31,93.7
"2010-01-28 01:16:00",1630511,6.801,131.1,3.942,0.63,2.826,99.07745,-3.051,-1.754,73.16,0,109.4,13.66,-2.31,93.1
"2010-01-28 01:16:30",1630512,7.118,132.6,3.099,0.553,2.63,99.07774,-3.05,-1.77,73.2,0,109.3,13.65,-2.31,94.6
"2010-01-28 01:17:00",1630513,7.366,134.3,3.726,0.528,2.699,99.07717,-3.051,-1.763,73.06,0,109.4,13.65,-2.31,96.3
"2010-01-28 01:17:30",1630514,7.331,135.4,4.111,0.539,2.728,99.07549,-3.056,-1.777,72.8,0,109.4,13.64,-2.31,97.4
"2010-01-28 01:18:00",1630515,7.3,135.9,3.721,0.547,2.856,99.07745,-3.051,-1.763,72.62,0,109.4,13.64,-2.31,97.9
"2010-01-28 01:18:30",1630516,7.401,135.7,3.588,0.359,2.993,99.07745,-3.051,-1.757,72.51,0,109.4,13.65,-2.31,97.7
"2010-01-28 01:19:00",1630517,7.319,134.5,4.076,0.527,2.985,99.07717,-3.051,-1.769,72.4,0,109.4,13.65,-2.31,96.5
"2010-01-28 01:19:30",1630518,7.118,133.3,4.194,0.542,3.03,99.07745,-3.051,-1.759,72.29,0,109.4,13.65,-2.31,95.3
"2010-01-28 01:20:00",1630519,7.041,134.9,4.074,0.545,3.116,99.07745,-3.051,-1.758,72.16,0,109.4,13.65,-2.31,96.9
"2010-01-28 01:20:30",1630520,6.928,137.7,3.722,0.608,3.009,99.07745,-3.051,-1.727,72.07,0,109.4,13.65,-2.31,99.7
"2010-01-28 01:21:00",1630521,7.122,139.3,4.2,0.466,2.871,99.07745,-3.051,-1.744,72.08,0,109.4,13.65,-2.31,101.3
"2010-01-28 01:21:30",1630522,7.095,139.5,3.982,0.527,2.947,99.07774,-3.05,-1.748,72.17,0,109.4,13.65,-2.31,101.5
"2010-01-28 01:22:00",1630523,7.256,136.7,4.167,0.533,2.958,99.07801,-3.049,-1.737,72.23,0,109.4,13.66,-2.31,98.7
"2010-01-28 01:22:30",1630524,7.3,137.7,3.726,0.498,2.981,99.07689,-3.052,-1.739,72.21,0,109.4,13.66,-2.31,99.7
"2010-01-28 01:23:00",1630525,7.204,136.5,3.913,0.641,2.952,99.07689,-3.052,-1.738,72.24,0,109.4,13.66,-2.31,98.5
"2010-01-28 01:23:30",1630526,7.406,134.3,3.504,0.635,3.025,99.07801,-3.049,-1.746,72.26,0,109.4,13.66,-2.31,96.3
"2010-01-28 01:24:00",1630527,7.413,135.5,4.282,0.494,3.164,99.07549,-3.056,-1.742,72.26,0,109.4,13.66,-2.31,97.5
"2010-01-28 01:24:30",1630528,7.38,139.6,4.033,0.524,2.951,99.07689,-3.052,-1.745,72.36,0,109.4,13.66,-2.31,101.6
"2010-01-28 01:25:00",1630529,7.17,141.3,3.666,0.633,3.158,99.07661,-3.053,-1.743,72.51,0,109.4,13.66,-2.31,103.3
"2010-01-28 01:25:30",1630530,7.121,141.6,4.133,0.553,3.308,99.06981,-3.07,-1.76,72.73,0,109.4,13.66,-2.33,103.6
"2010-01-28 01:26:00",1630531,7.042,141.4,4.133,0.524,3.367,99.06016,-3.095,-1.769,73.01,0,109.4,13.66,-2.35,103.4
"2010-01-28 01:26:30",1630532,7.292,140.9,3.61,0.297,3.276,99.05478,-3.108,-1.768,73.11,0,109.4,13.66,-2.37,102.9
"2010-01-28 01:27:00",1630533,6.883,142.1,4.45,0.549,2.957,99.04601,-3.131,-1.755,73.24,0,109.4,13.66,-2.39,104.1
"2010-01-28 01:27:30",1630534,6.82,139,3.865,0.646,3.137,99.04288,-3.139,-1.776,73.47,0,109.4,13.66,-2.40,101.0
"2010-01-28 01:28:00",1630535,6.988,138.1,3.788,0.536,2.973,99.0426,-3.139,-1.792,73.67,0,109.4,13.66,-2.40,100.1
"2010-01-28 01:28:30",1630536,7.08,138.4,4.133,0.375,2.895,99.04288,-3.139,-1.796,73.83,0,109.4,13.66,-2.40,100.4
"2010-01-28 01:29:00",1630537,6.857,134.6,5.194,0.546,2.91,99.03552,-3.157,-1.807,73.94,0,109.4,13.66,-2.42,96.6
"2010-01-28 01:29:30",1630538,7.194,129.1,3.818,0.641,2.678,99.0171,-3.204,-1.829,74.02,0,109.4,13.66,-2.46,91.1
"2010-01-28 01:30:00",1630539,7.155,129.4,3.89,0.548,2.747,99.01086,-3.22,-1.841,74.01,0,109.4,13.66,-2.48,91.4
"2010-01-28 01:30:30",1630540,6.955,129.8,3.184,0.622,2.546,99.01057,-3.221,-1.841,74.11,0,109.4,13.66,-2.48,91.8
"2010-01-28 01:31:00",1630541,6.768,131.5,3.844,0.644,2.487,99.00916,-3.225,-1.839,74.28,0,109.4,13.66,-2.48,93.5
"2010-01-28 01:31:30",1630542,6.679,134.8,4.95,0.663,2.369,99.00575,-3.233,-1.855,74.32,0,109.4,13.66,-2.49,96.8
"2010-01-28 01:32:00",1630543,6.935,141.7,4.253,0.641,2.339,98.98735,-3.28,-1.884,74.45,0,109.4,13.66,-2.54,103.7
"2010-01-28 01:32:30",1630544,7.047,144.4,3.454,0.548,2.686,98.97658,-3.308,-1.895,74.67,0,109.4,13.66,-2.57,106.4
"2010-01-28 01:33:00",1630545,6.993,142.1,4.021,0.675,2.609,98.97657,-3.308,-1.905,74.79,0,109.4,13.66,-2.57,104.1
"2010-01-28 01:33:30",1630546,6.848,140.6,3.968,0.664,2.502,98.97741,-3.305,-1.927,74.98,0,109.4,13.66,-2.57,102.6
"2010-01-28 01:34:00",1630547,6.644,139.6,4.327,0.564,2.688,98.96098,-3.347,-1.947,75.22,0,109.4,13.66,-2.61,101.6
"2010-01-28 01:34:30",1630548,6.886,147.4,4.225,0.382,2.581,98.94935,-3.377,-1.965,75.52,0,109.4,13.66,-2.64,109.4
"2010-01-28 01:35:00",1630549,6.539,145.2,4.797,0.638,2.517,98.9437,-3.391,-1.975,75.8,0,109.4,13.66,-2.65,107.2
"2010-01-28 01:35:30",1630550,6.352,142.9,4.768,0.676,2.439,98.94397,-3.391,-1.998,76.11,0,109.4,13.66,-2.65,104.9
"2010-01-28 01:36:00",1630551,5.15,146.7,7.49,0.83,2.106,98.92953,-3.427,-1.998,76.59,0,109.4,13.66,-2.69,108.7
"2010-01-28 01:36:30",1630552,6.237,141.3,3.5,0.669,2.085,98.91818,-3.456,-2.028,77.09,0,109.3,13.66,-2.72,103.3
"2010-01-28 01:37:00",1630553,6.34,139.1,4.16,0.747,1.9,98.90997,-3.477,-2.039,77.42,0,109.4,13.66,-2.74,101.1
"2010-01-28 01:37:30",1630554,6.318,139.7,4.915,0.557,2.037,98.91052,-3.476,-2.061,77.73,0,109.4,13.66,-2.74,101.7
"2010-01-28 01:38:00",1630555,6.265,136.1,4.544,0.421,1.918,98.89211,-3.523,-2.084,78.05,0,109.4,13.66,-2.78,98.1
"2010-01-28 01:38:30",1630556,6.677,137,4.755,0.543,1.902,98.87766,-3.56,-2.098,78.36,0,109.4,13.66,-2.82,99.0
"2010-01-28 01:39:00",1630557,5.56,146,8.59,0.625,1.795,98.87765,-3.56,-2.112,78.68,0,109.4,13.66,-2.82,108.0
"2010-01-28 01:39:30",1630558,5.019,143.9,7.347,0.583,1.499,98.86858,-3.583,-2.151,78.98,0,109.4,13.67,-2.84,105.9
"2010-01-28 01:40:00",1630559,4.605,144.8,8.48,0.965,0.531,98.85243,-3.624,-2.22,79.44,0,109.4,13.67,-2.88,106.8
"2010-01-28 01:40:30",1630560,4.332,131.6,6.937,1.159,-0.818,98.84365,-3.646,-2.326,79.69,0,109.4,13.67,-2.91,93.6
"2010-01-28 01:41:00",1630561,3.722,127.2,2.578,0.138,-2.536,98.84336,-3.647,-2.503,79.84,0,109.4,13.7,-2.91,89.2
"2010-01-28 01:41:30",1630562,5.761,136.4,6.816,1.017,1.524,98.82976,-3.682,-2.26,80.4,0,109.4,13.67,-2.94,98.4
"2010-01-28 01:42:00",1630563,5.979,135.4,4.343,0.65,2.698,98.81332,-3.723,-2.252,80.6,0,109.4,13.67,-2.98,97.4
"2010-01-28 01:42:30",1630564,6.712,131,4.545,0.554,2.917,98.80993,-3.732,-2.283,80.9,0,109.4,13.67,-2.99,93.0
"2010-01-28 01:43:00",1630565,6.35,129.3,4.798,0.596,2.793,98.80993,-3.732,-2.291,81.1,0,109.4,13.67,-2.99,91.3
"2010-01-28 01:43:30",1630566,6.283,129.4,4.528,0.664,2.484,98.79831,-3.762,-2.312,81.3,0,109.4,13.67,-3.02,91.4
"2010-01-28 01:44:00",1630567,6.347,125.8,4.73,0.572,2.368,98.77876,-3.811,-2.329,81.5,0,109.4,13.67,-3.07,87.8
"2010-01-28 01:44:30",1630568,6.639,124.8,3.915,0.641,2.153,98.77592,-3.819,-2.355,81.7,0,109.4,13.67,-3.08,86.8
"2010-01-28 01:45:00",1630569,6.687,125.3,5.069,0.382,1.839,98.77507,-3.821,-2.386,81.9,0,109.4,13.67,-3.08,87.3
"2010-01-28 01:45:30",1630570,6.785,122.3,2.472,0.568,1.724,98.75241,-3.879,-2.458,82,0,109.4,13.67,-3.14,84.3